Regional Weather Roundup
Issued by NWS

Home | Current Version | Previous Version | Graphics & Text | Print | Product List | Glossary On
Versions: 1 2 3 4 5 6 7 8 9 10 11 12 13 14 15 16 17 18 19 20 21 22 23 24 25 26 27 28 29 30 31 32 33 34 35 36 37 38 39 40 41 42 43 44 45 46 47 48 49 50
000
ASUS43 KBIS 231702
RWRND

NORTH DAKOTA REGIONAL WEATHER ROUNDUP
NATIONAL WEATHER SERVICE BISMARCK ND
1200 PM CDT THU MAR 23 2017

NOTE: "FAIR" INDICATES FEW OR NO CLOUDS BELOW 12,000 FEET WITH NO
SIGNIFICANT WEATHER AND/OR OBSTRUCTIONS TO VISIBILITY.


NDZ001>003-009>011-017-231800-
NORTHWEST NORTH DAKOTA

CITY           SKY/WX    TMP DP  RH WIND       PRES   REMARKS
WILLISTON      FAIR      43  36  76 E5        29.77R
MINOT          FAIR      45  34  65 NW6       29.75R
MINOT AFB      CLOUDY    39  35  84 CALM      29.75R
$$

NDZ018>021-031>035-040>046-231800-
SOUTHWEST NORTH DAKOTA

CITY           SKY/WX    TMP DP  RH WIND       PRES   REMARKS
BISMARCK       LGT RAIN  38  35  89 N5        29.78R FOG
DICKINSON      CLOUDY    51  34  52 N14       29.71F
GARRISON         N/A     36  31  82 CALM      29.74F
HETTINGER ARPT CLOUDY    44  40  85 NE13      29.71F
$$

NDZ004>008-012>016-024-026-027-054-231800-
NORTHEAST NORTH DAKOTA

CITY           SKY/WX    TMP DP  RH WIND       PRES   REMARKS
GRAND FORKS    LGT RAIN  36  33  89 S16       29.83R
GRND FRKS AFB  LGT RAIN  34  31  88 SW10      29.84R
DEVILS LAKE    PTSUNNY   35  30  82 S8        29.81R
$$

NDZ022-023-025-028>030-036>039-047>053-231800-
SOUTHEAST NORTH DAKOTA

CITY           SKY/WX    TMP DP  RH WIND       PRES   REMARKS
FARGO          PTSUNNY   40  29  64 SE20G28   29.82F
JAMESTOWN      PTSUNNY   41  36  82 S10       29.76F
$$





USA.gov is the U.S. government's official web portal to all federal, state and local government web resources and services.